IZ2OSD Weather Reports


time (UTC)temp
F
wind
direction
speed
knots
gust
knots
rain 1hr
in
rain 24hr
in
rain mn
in
humidity
%
barometer
mb
20260510220115 56 292 0.9 1.7 0.00 0.18 0.00 91 1010.1
20260510215106 56 292 0.9 1.7 0.00 0.18 0.18 91 1010.2
20260510214054 56 292 0.9 1.7 0.00 0.18 0.18 91 1010.3
20260510213051 57 292 0.0 0.9 0.00 0.18 0.18 90 1010.5
20260510212045 56 292 1.7 2.6 0.00 0.18 0.18 90 1010.6
20260510211042 56 315 1.7 2.6 0.00 0.18 0.18 91 1010.6
20260510210039 56 315 1.7 2.6 0.00 0.18 0.18 90 1010.9
20260510205118 56 315 1.7 3.5 0.00 0.18 0.18 91 1010.6
20260510204034 56 315 2.6 3.5 0.00 0.18 0.18 91 1010.8
20260510203031 56 315 1.7 3.5 0.00 0.18 0.18 92 1010.7
20260510202027 56 315 0.9 2.6 0.00 0.18 0.18 92 1011.0
20260510201022 56 315 0.0 1.7 0.00 0.18 0.18 93 1011.2
20260510200040 57 0.0 0.0 0.00 0.18 0.18 92 1010.9
20260510195016 56 315 1.7 2.6 0.00 0.18 0.18 92 1011.3
20260510194013 56 315 1.7 1.7 0.00 0.18 0.18 92 1011.0
20260510193011 56 315 0.9 1.7 0.00 0.18 0.18 93 1011.2
20260510192027 56 315 0.0 1.7 0.00 0.18 0.18 93 1011.0
20260510191003 57 315 0.9 1.7 0.00 0.18 0.18 92 1011.0
20260510190503 57 315 0.0 0.9 0.00 0.18 0.18 92 1011.0
20260510185457 57 0.0 0.0 0.00 0.18 0.18 92 1011.1
20260510184454 57 292 0.0 1.7 0.00 0.18 0.18 93 1011.2
20260510183451 57 315 0.0 0.9 0.00 0.18 0.18 93 1010.8
20260510182501 57 315 0.9 2.6 0.00 0.18 0.18 93 1011.0
20260510181438 57 315 2.6 2.6 0.00 0.18 0.18 93 1010.8
20260510180426 57 315 2.6 3.5 0.00 0.18 0.18 93 1010.8
20260510175416 57 315 2.6 3.5 0.00 0.18 0.18 93 1010.7
20260510174413 57 315 0.9 2.6 0.00 0.18 0.18 92 1010.7
20260510173410 57 315 3.5 5.2 0.00 0.18 0.18 92 1010.7
20260510172406 57 315 2.6 3.5 0.00 0.18 0.18 91 1011.0
20260510171402 57 315 1.7 5.2 0.00 0.18 0.18 90 1011.1
20260510170352 57 22 0.9 2.6 0.00 0.18 0.18 90 1010.7
20260510165409 57 292 1.7 3.5 0.01 0.18 0.18 90 1011.0
20260510164345 57 315 0.9 1.7 0.01 0.18 0.18 90 1011.3
20260510163402 57 315 0.9 2.6 0.01 0.18 0.18 89 1011.2
20260510162338 57 315 0.9 2.6 0.01 0.18 0.18 88 1011.4
20260510161329 58 315 1.7 2.6 0.01 0.18 0.18 88 1011.3
20260510160325 58 0.0 0.9 0.01 0.18 0.18 87 1011.4
20260510155322 58 315 1.7 2.6 0.00 0.17 0.17 86 1011.7
20260510154318 58 0 0.0 1.7 0.00 0.17 0.17 85 1011.4
20260510153355 59 315 0.9 2.6 0.00 0.17 0.17 83 1011.6
20260510152308 59 315 0.9 2.6 0.00 0.17 0.17 81 1011.4
20260510151303 59 337 0.9 2.6 0.00 0.17 0.17 80 1011.6
20260510150257 59 315 1.7 3.5 0.00 0.17 0.17 79 1011.6
20260510145314 60 315 3.5 7.0 0.00 0.17 0.17 79 1012.0
20260510144250 60 315 0.9 1.7 0.00 0.17 0.17 79 1012.0
20260510143244 60 292 1.7 3.5 0.00 0.17 0.17 78 1011.6
20260510142241 59 315 2.6 5.2 0.00 0.17 0.17 79 1011.8
20260510141234 60 315 4.3 7.0 0.00 0.17 0.17 81 1011.8
20260510140257 60 315 1.7 3.5 0.00 0.17 0.17 83 1012.0
20260510135248 59 315 0.9 3.5 0.00 0.17 0.17 83 1011.9
20260510134237 59 90 2.6 3.5 0.00 0.17 0.17 83 1012.3
20260510133222 59 337 0.9 1.7 0.00 0.17 0.17 85 1012.7
20260510132203 59 315 1.7 7.0 0.00 0.17 0.17 85 1012.2
20260510131202 58 315 0.9 2.6 0.00 0.17 0.17 85 1012.2
20260510130150 58 315 0.9 3.5 0.00 0.17 0.17 86 1012.4
20260510125142 57 315 3.5 5.2 0.00 0.17 0.17 87 1012.5
20260510124138 57 337 1.7 5.2 0.00 0.17 0.17 88 1012.6
20260510123132 57 315 0.9 2.6 0.00 0.17 0.17 88 1012.7
20260510122131 56 337 0.9 2.6 0.00 0.17 0.17 87 1012.8
20260510121119 56 315 3.5 7.8 0.01 0.17 0.17 87 1013.3
20260510120114 57 337 1.7 5.2 0.01 0.17 0.17 88 1013.0
20260510115106 57 315 2.6 7.0 0.02 0.17 0.17 89 1012.9
20260510114102 57 90 0.9 2.6 0.02 0.17 0.17 89 1013.2
20260510113058 58 315 0.9 3.5 0.04 0.17 0.17 88 1013.0
20260510112053 58 337 2.6 5.2 0.07 0.17 0.17 90 1013.2
20260510111050 57 315 1.7 5.2 0.05 0.16 0.16 92 1013.4
20260510110107 58 315 1.7 2.6 0.05 0.16 0.16 94 1013.0
20260510105044 58 315 0.9 2.6 0.04 0.15 0.15 94 1013.2
20260510104040 58 315 0.9 2.6 0.04 0.15 0.15 94 1013.3
20260510103030 58 315 0.9 2.6 0.02 0.12 0.12 94 1013.4
20260510102026 59 315 0.9 1.7 0.00 0.10 0.10 94 1013.5
20260510100645 58 315 0.9 1.7 0.02 0.10 0.10 94 1013.4
20260510094813 58 0.0 1.7 0.05 0.10 0.10 94 1013.6
20260510093804 58 315 1.7 2.6 0.05 0.10 0.10 94 1013.6
20260510091920 58 315 0.0 1.7 0.07 0.09 0.09 94 1013.5
20260510090915 58 315 4.3 7.0 0.05 0.08 0.08 93 1013.7
20260510085913 59 315 0.9 1.7 0.04 0.07 0.07 92 1013.4
20260510084909 59 0.0 0.9 0.02 0.04 0.04 91 1013.5
20260510083909 59 315 1.7 1.7 0.03 0.04 0.04 90 1013.5
20260510082903 60 0.0 0.0 0.02 0.03 0.03 90 1013.6
20260510081901 60 0.0 0.0 0.01 0.02 0.02 90 1013.5
20260510080856 60 0.0 0.0 0.01 0.02 0.02 90 1013.4
20260510075854 59 0.0 0.0 0.01 0.02 0.02 90 1013.5
20260510074850 59 0.0 0.0 0.01 0.02 0.02 89 1013.5
20260510073846 60 0.0 0.0 0.00 0.01 0.01 88 1013.4
20260510072843 60 0.0 0.0 0.00 0.01 0.01 88 1013.4
20260510071837 60 0.0 0.0 0.00 0.01 0.01 87 1013.0
20260510070834 60 0.0 0.0 0.00 0.01 0.01 88 1013.0
20260510065832 60 0.0 0.0 0.00 0.01 0.01 88 1012.9
20260510064827 60 0.0 0.0 0.00 0.01 0.01 87 1012.9
20260510063824 60 0.0 0.0 0.00 0.01 0.01 87 1012.9
20260510062841 60 0.0 0.0 0.01 0.01 0.01 86 1012.8
20260510061817 60 0.0 0.0 0.01 0.01 0.01 86 1012.8
20260510060807 59 0.0 0.0 0.01 0.01 0.01 86 1012.9
20260510055803 59 315 0.9 1.7 0.01 0.01 0.01 85 1012.7
20260510054800 59 292 0.0 1.7 0.01 0.01 0.01 85 1012.6
20260510053757 60 292 0.0 0.9 0.01 0.01 0.01 82 1012.8
20260510052754 60 292 0.0 0.9 0.00 0.00 0.00 80 1012.4
20260510051750 61 292 0.0 0.9 0.00 0.00 0.00 77 1012.3
20260510050740 61 0.0 0.0 0.00 0.00 0.00 76 1012.0
20260510045730 61 0.0 0.0 0.00 0.00 0.00 76 1011.9
20260510044726 61 0.0 0.0 0.00 0.00 0.00 76 1011.9
20260510043716 60 0.0 0.0 0.00 0.00 0.00 77 1011.8
20260510042708 60 0.0 0.0 0.00 0.00 0.00 77 1011.7
20260510041703 60 292 0.0 0.9 0.00 0.00 0.00 77 1011.6
20260510040658 60 292 0.0 0.9 0.00 0.00 0.00 77 1011.7
20260510035714 60 292 0.9 1.7 0.00 0.00 0.00 78 1011.9
20260510034651 61 0.0 0.0 0.00 0.00 0.00 78 1011.8
20260510033642 61 0.0 0.9 0.00 0.00 0.00 76 1011.9
20260510032638 62 0.0 0.0 0.00 0.00 0.00 76 1011.9
20260510031635 62 0.0 0.0 0.00 0.00 0.00 71 1012.1
20260510030633 62 0.0 0.0 0.00 0.00 0.00 70 1012.3
20260510025627 62 0.0 0.0 0.00 0.00 0.00 69 1012.1
20260510024624 62 0.0 0.0 0.00 0.00 0.00 68 1012.2
20260510023621 62 0.0 0.0 0.00 0.00 0.00 68 1012.2
20260510022617 62 292 0.9 1.7 0.00 0.00 0.00 68 1012.4
20260510021607 62 292 0.0 1.7 0.00 0.00 0.00 68 1012.4
20260510020604 62 292 1.7 2.6 0.00 0.00 0.00 68 1012.5
20260510015600 62 292 0.9 1.7 0.00 0.00 0.00 68 1012.9
20260510014638 62 292 0.9 2.6 0.00 0.00 0.00 67 1012.8
20260510013553 62 315 0.9 1.7 0.00 0.00 0.00 67 1012.8
20260510012551 62 292 0.0 1.7 0.00 0.00 0.00 67 1012.9
20260510011541 62 292 1.7 2.6 0.00 0.00 0.00 68 1012.8
20260510010537 62 292 0.0 1.7 0.00 0.00 0.00 68 1012.9
20260510005533 62 292 0.9 1.7 0.00 0.00 0.00 68 1013.4
20260510004529 62 0.0 0.0 0.00 0.00 0.00 68 1013.2
20260510003539 62 315 1.7 3.5 0.00 0.00 0.00 68 1013.2
20260510002515 63 292 1.7 2.6 0.00 0.00 0.00 68 1013.0
20260510001511 63 315 0.9 2.6 0.00 0.00 0.00 68 1013.5
20260510000508 63 315 0.9 2.6 0.00 0.00 0.00 68 1013.4
20260509235504 63 292 1.7 3.5 0.00 0.00 0.00 67 1013.9
20260509234503 63 292 1.7 2.6 0.00 0.00 0.00 68 1013.7
20260509234000 63 292 2.6 3.5 0.00 0.00 0.00 68 1013.8
20260509232958 62 315 1.7 2.6 0.00 0.00 0.00 69 1013.8
20260509231953 62 315 0.9 2.6 0.00 0.00 0.00 69 1013.7
20260509230950 62 315 2.6 3.5 0.00 0.00 0.00 70 1013.7
20260509225946 62 292 0.9 2.6 0.00 0.00 0.00 70 1013.8
20260509224943 62 292 0.0 0.9 0.00 0.00 0.00 71 1013.6
20260509223941 62 292 0.9 1.7 0.00 0.00 0.00 70 1013.8
20260509222930 62 0.0 0.9 0.00 0.00 0.00 70 1013.8
20260509222007 62 0.0 0.0 0.00 0.00 0.00 69 1013.9
20260509221042 62 0.0 0.0 0.00 0.00 0.00 69 1013.8